This demonstration page uses our WeatherBlox Daily Observations layout. Learn more.

Left ArrowRight Arrow

38.20091, -84.87328

Hourly Observations for March 23, 2022

Temp ( °F °C ) Dew Point ( °F °C ) Humidity (%) Winds ( mph kmh ) Pressure ( in mb ) Visibility ( mi km ) Precip ( " mm )
12:53 am 00:53 Partly Cloudy 65 18.3 49 9.4 56 56 SSW 9 15 29.73 1007 10 16 0.00 0.00
1:53 am 01:53 Cloudy 63 17.2 53 11.7 70 70 SSW 6 9 29.71 1006 10 16 0.00 0.00
2:53 am 02:53 Mostly Cloudy 61 16.1 54 12.2 78 78 SE 7 11 29.68 1005 10 16 0.00 0.00
3:53 am 03:53 Mostly Cloudy 63 17.2 51 10.6 65 65 SSE 13 20 29.62 1003 10 16 0.00 0.00
4:53 am 04:53 Cloudy 64 17.8 52 11.1 65 65 S 16 26 29.62 1003 10 16 0.00 0.00
5:53 am 05:53 Mostly Cloudy 61 16.1 52 11.1 72 72 S 8 13 29.61 1003 10 16 0.00 0.00
6:53 am 06:53 Cloudy 61 16.1 52 11.1 72 72 SSE 10 17 29.61 1003 10 16 0.00 0.00
7:50 am 07:50 Cloudy 63 17 54 12 73 73 SSE 10 17 29.62 1003 10 16 0.00 0.00
7:53 am 07:53 Cloudy 62 16.7 53 11.7 73 73 SSE 9 15 29.62 1003 10 16 0.00 0.00
8:53 am 08:53 Cloudy 62 16.7 55 12.8 78 78 SSE 14 22 29.62 1003 10 16 0.00 0.00
9:53 am 09:53 Mostly Cloudy 63 17.2 55 12.8 76 76 S 15 24 29.60 1002 10 16 0.00 0.00
10:01 am 10:01 Mostly Cloudy 64 17.8 56 13.3 75 75 SSE 15 24 29.60 1002 10 16 0.00 0.00
10:09 am 10:09 Cloudy 64 17.8 56 13.3 75 75 SSE 16 26 29.60 1002 10 16 0.00 0.00
10:23 am 10:23 Cloudy 65 18.3 57 13.9 76 76 S 14 22 29.59 1002 10 16 0.00 0.00
10:53 am 10:53 Cloudy 65 18.3 57 13.9 76 76 SSE 16 26 29.57 1002 10 16 0.00 0.00
11:08 am 11:08 Cloudy 64 17.8 57 13.9 78 78 SSE 15 24 29.58 1002 10 16 0.00 0.00
11:53 am 11:53 Cloudy 66 18.9 58 14.4 75 75 S 13 20 29.56 1001 10 16 0.00 0.00
12:53 pm 12:53 Mostly Cloudy 71 21.7 58 14.4 63 63 SSW 13 20 29.52 1000 10 16 0.00 0.00
1:53 pm 13:53 Mostly Cloudy 72 22.2 52 11.1 50 50 SSW 26 43 29.50 999 10 16 0.00 0.00
2:53 pm 14:53 Mostly Cloudy 71 21.7 49 9.4 46 46 SW 26 43 29.51 999 10 16 0.00 0.00
3:53 pm 15:53 Mostly Cloudy 69 20.6 46 7.8 44 44 SW 21 33 29.52 1000 10 16 0.00 0.00
4:53 pm 16:53 Partly Cloudy 69 20.6 44 6.7 41 41 SW 24 39 29.54 1000 10 16 0.00 0.00
5:53 pm 17:53 Mostly Cloudy 68 20 42 5.6 39 39 SSW 22 35 29.56 1001 10 16 0.00 0.00
6:53 pm 18:53 Mostly Cloudy 63 17.2 46 7.8 54 54 SW 18 30 29.62 1003 10 16 0.00 0.00
7:53 pm 19:53 Mostly Sunny 57 14 N/A N/A WSW 14 22 29.67 1005 10 16 0.00 0.00
8:53 pm 20:53 Clear 54 12 N/A N/A WSW 22 35 29.72 1006 10 16 0.00 0.00
9:53 pm 21:53 Cloudy 52 11 N/A N/A SW 20 31 29.77 1008 10 16 0.00 0.00
10:53 pm 22:53 Cloudy 52 11 N/A N/A WSW 18 30 29.79 1009 10 16 0.00 0.00
11:53 pm 23:53 Cloudy 50 10 N/A N/A SW 15 24 29.80 1009 10 16 0.00 0.00

Powered by AerisWeather